MDT,Max TemperatureF,Mean TemperatureF,Min TemperatureF,Max Dew PointF,MeanDew PointF,Min DewpointF,Max Humidity, Mean Humidity, Min Humidity, Max Sea Level PressureIn, Mean Sea Level PressureIn, Min Sea Level PressureIn, Max VisibilityMiles, Mean VisibilityMiles, Min VisibilityMiles, Max Wind SpeedMPH, Mean Wind SpeedMPH, Max Gust SpeedMPH,PrecipitationIn, CloudCover, Events, WindDirDegrees
2013-10-1,66,54,41,39,32,21,66,43,28,29.97,29.92,29.87,10,10,2,15,6,24,0.00,1,,324
2013-10-2,51,44,37,39,34,30,93,66,47,30.11,30.02,29.92,10,10,7,17,9,25,0.00,4,,15
2013-10-3,42,36,30,39,33,28,93,90,81,30.18,29.98,29.84,10,6,0,24,11,34,1.80,8,,2
2013-10-4,33,30,26,28,25,21,93,82,60,30.40,30.34,30.18,10,7,1,28,17,38,0.84,6,,346
2013-10-5,42,30,17,32,24,14,93,78,53,30.34,30.29,30.26,10,10,10,7,3,,0.00,0,,131
2013-10-6,57,42,26,43,34,27,100,78,48,30.28,30.22,30.14,10,10,7,8,2,,0.00,0,,81
2013-10-7,62,50,39,46,36,25,87,56,30,30.14,29.94,29.80,10,10,5,20,7,22,0.00,0,,163
2013-10-8,55,46,37,37,33,28,75,59,46,29.97,29.82,29.74,10,10,10,17,5,21,0.00,0,,21
2013-10-9,48,40,33,37,33,28,93,77,66,30.06,29.99,29.90,10,10,10,13,3,,0.00,3,,104
2013-10-10,51,42,33,43,38,30,100,83,58,29.89,29.76,29.69,10,10,10,16,6,21,0.01,4,,16
2013-10-11,50,41,32,41,31,23,93,69,35,30.06,29.91,29.74,10,10,10,20,11,28,0.00,7,,3
2013-10-12,51,40,28,34,29,25,93,72,38,30.11,30.06,30.02,10,10,10,17,3,22,0.00,1,,139
2013-10-13,42,37,32,37,33,28,100,88,76,30.11,30.09,30.05,10,9,3,14,4,,0.00,7,,29
2013-10-14,35,34,33,34,31,30,93,88,87,30.31,30.19,30.09,10,6,2,22,14,29,0.00,8,,347
2013-10-15,33,32,30,27,27,27,86,83,75,30.35,30.34,30.33,10,10,10,7,3,,0.00,5,,236
2013-10-16,,,,,,,,,,,,,,,,,,,,,,
2013-10-17,35,32,28,34,31,28,100,93,87,30.18,30.13,30.10,10,6,0,17,2,26,0.01,8,,225
2013-10-18,48,34,21,28,26,19,100,73,37,30.22,30.14,30.04,10,10,5,12,4,,0.00,1,,161
2013-10-19,60,45,30,30,26,23,75,41,27,30.04,29.97,29.92,10,10,10,17,9,30,0.00,1,,289
2013-10-20,50,42,35,36,32,28,93,71,43,30.11,30.07,29.97,10,10,5,14,8,22,0.07,5,,343
2013-10-21,57,46,35,37,33,28,81,62,36,30.17,30.12,30.09,10,10,10,13,5,17,0.00,4,,224
2013-10-22,62,48,33,41,34,28,87,67,34,30.19,30.15,30.10,10,10,10,12,5,,0.00,0,,154
2013-10-23,57,46,35,36,32,28,81,61,41,30.23,30.19,30.15,10,10,10,12,4,,0.00,0,,90
2013-10-24,55,42,30,37,34,27,93,71,47,30.26,30.22,30.16,10,10,4,13,4,17,0.00,0,,169
2013-10-25,60,46,32,39,33,28,100,65,31,30.29,30.20,30.15,10,10,10,15,6,21,0.00,0,,307
2013-10-26,64,50,35,36,29,21,75,46,25,30.31,30.21,30.07,10,10,10,16,5,28,0.00,0,,205
2013-10-27,62,50,37,30,25,21,75,35,20,30.06,29.92,29.81,10,10,10,18,10,31,0.00,1,,300
2013-10-28,35,27,19,28,23,18,100,86,75,30.06,30.04,30.01,10,9,2,23,15,34,0.00,8,,360
2013-10-29,30,24,19,28,23,18,100,92,80,30.03,29.93,29.84,10,10,3,9,4,,0.00,8,,60
2013-10-30,42,35,28,36,30,23,100,85,46,29.84,29.81,29.77,10,10,8,17,5,31,0.00,4,,15
2013-10-31,50,44,37,30,27,23,70,52,40,29.96,29.83,29.77,10,10,10,33,17,50,0.04,2,,261